sat.trackr.live / text

‹ back to catalog

ORBASTRO-TR5

NORAD 63236 · 2025-052AC

PAYLOAD ACTIVE UNKNOWN

§ Identity

Operator
Country
UK
Launch date
2025-03-15
Launch site
AFWTR
Launch vehicle
Mass (kg)
RCS (m²)

External: N2YO · Heavens-Above · Gunter

§ Orbital elements

Epoch: 2026-05-25T03:45:12.280032Z

Period
94.62 min
Inclination
97.3868°
Eccentricity
0.0002519
Mean motion
15.21841329 rev/d
Perigee alt
498.6 km
Apogee alt
502.0 km
Semi-major
6,878.4 km
B*
1.8457e-4
RAAN
37.2386°
Arg perigee
208.9503°
Mean anomaly
151.1594°
Rev number
6,631

§ Raw data

ORBASTRO-TR51 63236U 25052AC  26145.15639213  .00004125  00000+0  18457-3 0  99912 63236  97.3868  37.2386 0002519 208.9503 151.1594 15.21841329 66314

JSON: /api/v1/satellites/63236 · /tle

For live sub-satellite position, see the globe view (requires WebGL).

§ Visibility from observer

Set your observer location to see the next 7 days of passes ≥ 10°. The values pass through the URL so the page stays shareable.

No JS? Fill the form by hand. The geolocation button needs JavaScript.

§ Radio — SatNOGS DB

ModeDescriptionDownlinkUplink
FM S-band telemetry 2.260 GHz

1 transmitter · refreshed weekly from db.satnogs.org